Weather History for KALX - April, 2014

Change the Weather History Date:

Thursday, April 10, 2014

  Actual Average (KAUO) Record (KAUO)
Temperature  
Mean Temperature 60 °F -  
Max Temperature 78 °F - 86 °F (1965)
Min Temperature 41 °F - 30 °F (1960)
Degree Days  
Heating Degree Days 6    
Month to date heating degree days  
Since 1 July heating degree days  
Cooling Degree Days 0    
Month to date cooling degree days  
Year to date cooling degree days  
Growing Degree Days 10 (Base 50)    
Moisture  
Dew Point 38 °F    
Average Humidity 52    
Maximum Humidity 85    
Minimum Humidity 14    
Precipitation  
Precipitation 0.00 in - 1.75 in (2009)
Month to date precipitation  
Year to date precipitation  
Sea Level Pressure  
Sea Level Pressure 30.22 in    
Wind  
Wind Speed 2 mph (SSW)    
Max Wind Speed 12 mph    
Max Gust Speed 17 mph    
Visibility 10 miles    
Events      
T = Trace of Precipitation, MM = Missing Value Source: NWS Daily Summary

Daily Weather History Graph

Daily Weather History Graph

Search for Another Location

Airport or City:

Trip Planner

Search our weather history database for the weather conditions in past years. The results will help you decide how hot, cold, wet, or windy it might be!

Date:

Astronomy

Apr. 10, 2014 Rise Set
Actual Time 6:20 AM CDT 7:10 PM CDT
Civil Twilight 5:55 AM CDT 7:35 PM CDT
Nautical Twilight 5:25 AM CDT 8:05 PM CDT
Astronomical Twilight 4:54 AM CDT 8:36 PM CDT
Moon 3:06 PM CDT (4/10) 3:28 AM CDT (4/10)
Length of Visible Light 13h 40m
Length of Day
12h 50m
Waxing Gibbous, 80% of the Moon is Illuminated
Apr 10
Waxing Gibbous
Apr 15
Full
Apr 22
Last Quarter
Apr 29
New
May 6
First Quarter

Hourly Weather History & Observations

Time (CDT) Temp. Dew Point Humidity Pressure Visibility Wind Dir Wind Speed Gust Speed Precip Events Conditions
12:15 AM 50.2 °F 43.7 °F 78% 30.20 in 10.0 mi Calm Calm - N/A   Clear
12:35 AM 47.7 °F 42.3 °F 82% 30.20 in 10.0 mi Calm Calm - N/A   Clear
12:55 AM 50.2 °F 44.1 °F 79% 30.20 in 10.0 mi Calm Calm - N/A   Clear
1:15 AM 45.1 °F 40.1 °F 82% 30.20 in 10.0 mi Calm Calm - N/A   Clear
1:35 AM 47.7 °F 41.9 °F 80% 30.19 in 10.0 mi Calm Calm - N/A   Clear
1:55 AM 45.1 °F 39.6 °F 81% 30.19 in 10.0 mi Calm Calm - N/A   Clear
2:15 AM 45.1 °F 40.3 °F 83% 30.19 in 10.0 mi Calm Calm - N/A   Clear
2:35 AM 47.3 °F 41.5 °F 80% 30.20 in 10.0 mi Calm Calm - N/A   Clear
2:55 AM 43.9 °F 39.2 °F 84% 30.20 in 10.0 mi Calm Calm - N/A   Clear
3:15 AM 43.7 °F 38.8 °F 83% 30.20 in 10.0 mi Calm Calm - N/A   Clear
3:35 AM 43.9 °F 39.4 °F 84% 30.20 in 10.0 mi Calm Calm - N/A   Clear
3:55 AM 43.0 °F 38.7 °F 85% 30.20 in 10.0 mi Calm Calm - N/A   Clear
4:15 AM 42.8 °F 38.3 °F 84% 30.21 in 10.0 mi Calm Calm - N/A   Clear
4:35 AM 42.8 °F 38.3 °F 84% 30.21 in 10.0 mi Calm Calm - N/A   Clear
4:55 AM 42.8 °F 38.3 °F 84% 30.21 in 10.0 mi Calm Calm - N/A   Clear
5:15 AM 42.8 °F 38.3 °F 84% 30.21 in 10.0 mi Calm Calm - N/A   Clear
5:35 AM 43.5 °F 39.0 °F 84% 30.22 in 10.0 mi Calm Calm - N/A   Clear
5:55 AM 42.8 °F 37.8 °F 82% 30.23 in 10.0 mi Calm Calm - N/A   Clear
6:15 AM 41.5 °F 37.2 °F 85% 30.24 in 10.0 mi Calm Calm - N/A   Clear
6:35 AM 41.9 °F 37.4 °F 84% 30.25 in 10.0 mi Calm Calm - N/A   Clear
6:55 AM 42.8 °F 37.9 °F 83% 30.26 in 10.0 mi Calm Calm - N/A   Clear
7:15 AM 45.1 °F 39.7 °F 81% 30.27 in 10.0 mi Calm Calm - N/A   Clear
7:35 AM 49.5 °F 42.8 °F 78% 30.27 in 10.0 mi Calm Calm - N/A   Clear
7:55 AM 50.2 °F 42.1 °F 74% 30.27 in 10.0 mi Calm Calm - N/A   Clear
8:15 AM 55.2 °F 46.2 °F 72% 30.27 in 10.0 mi Calm Calm - N/A   Clear
8:35 AM 55.4 °F 46.2 °F 71% 30.28 in 10.0 mi Calm Calm - N/A   Clear
8:55 AM 57.7 °F 43.9 °F 60% 30.28 in 10.0 mi Calm Calm - N/A   Clear
9:15 AM 62.8 °F 42.8 °F 48% 30.28 in 10.0 mi Calm Calm - N/A   Clear
9:55 AM 68.0 °F 39.4 °F 35% 30.29 in 10.0 mi Calm Calm - N/A   Clear
10:15 AM 70.7 °F 39.2 °F 32% 30.29 in 10.0 mi Calm Calm - N/A   Clear
10:35 AM 70.7 °F 33.1 °F 25% 30.29 in 10.0 mi WSW 6.9 mph - N/A   Clear
10:55 AM 70.7 °F 30.9 °F 23% 30.29 in 10.0 mi South 8.1 mph - N/A   Clear
11:15 AM 70.9 °F 33.1 °F 25% 30.28 in 10.0 mi Calm Calm - N/A   Clear
11:35 AM 71.8 °F 32.4 °F 23% 30.27 in 10.0 mi SSE 4.6 mph 17.3 mph N/A   Clear
11:55 AM 74.5 °F 33.1 °F 22% 30.26 in 10.0 mi South 6.9 mph - N/A   Clear
12:15 PM 75.6 °F 32.4 °F 21% 30.26 in 10.0 mi South 9.2 mph - N/A   Clear
12:35 PM 75.6 °F 31.3 °F 20% 30.25 in 10.0 mi WSW 4.6 mph - N/A   Clear
12:55 PM 75.6 °F 31.6 °F 20% 30.24 in 10.0 mi South 5.8 mph - N/A   Clear
1:35 PM 75.6 °F 29.7 °F 18% 30.22 in 10.0 mi SW 6.9 mph 10.4 mph N/A   Clear
1:55 PM 75.6 °F 28.6 °F 18% 30.21 in 10.0 mi South 6.9 mph 16.1 mph N/A   Clear
2:15 PM 76.5 °F 28.6 °F 17% 30.21 in 10.0 mi South 9.2 mph - N/A   Clear
2:55 PM 78.1 °F 27.3 °F 15% 30.19 in 10.0 mi South 10.4 mph - N/A   Clear
3:15 PM 78.1 °F 26.2 °F 15% 30.19 in 10.0 mi SSW 9.2 mph 16.1 mph N/A   Clear
3:35 PM 78.1 °F 26.2 °F 15% 30.18 in 10.0 mi SSW 10.4 mph - N/A   Clear
3:55 PM 78.1 °F 27.1 °F 15% 30.18 in 10.0 mi SSE 8.1 mph - N/A   Clear
4:15 PM 78.1 °F 27.5 °F 16% 30.17 in 10.0 mi South 4.6 mph - N/A   Clear
4:35 PM 78.1 °F 26.6 °F 15% 30.17 in 10.0 mi South 11.5 mph - N/A   Clear
4:55 PM 78.1 °F 25.2 °F 14% 30.17 in 10.0 mi South 5.8 mph 16.1 mph N/A   Clear
5:15 PM 78.1 °F 26.8 °F 15% 30.17 in 10.0 mi SSE 3.5 mph - N/A   Clear
5:55 PM 77.0 °F 28.4 °F 17% 30.17 in 10.0 mi South 5.8 mph - N/A   Clear
6:15 PM 75.6 °F 29.7 °F 18% 30.18 in 10.0 mi SSW 4.6 mph - N/A   Clear
6:35 PM 75.6 °F 32.4 °F 21% 30.18 in 10.0 mi South 4.6 mph - N/A   Clear
6:55 PM 75.6 °F 35.4 °F 23% 30.17 in 10.0 mi Calm Calm - N/A   Clear
7:15 PM 70.7 °F 32.7 °F 25% 30.17 in 10.0 mi Calm Calm - N/A   Clear
7:35 PM 66.4 °F 48.6 °F 53% 30.17 in 10.0 mi Calm Calm - N/A   Clear
7:55 PM 63.0 °F 46.9 °F 56% 30.18 in 10.0 mi Calm Calm - N/A   Clear
8:15 PM 61.7 °F 43.7 °F 52% 30.18 in 10.0 mi Calm Calm - N/A   Clear
8:35 PM 61.7 °F 51.3 °F 69% 30.19 in 10.0 mi Calm Calm - N/A   Clear
8:55 PM 60.3 °F 50.4 °F 70% 30.19 in 10.0 mi Calm Calm - N/A   Clear
9:15 PM 57.7 °F 44.6 °F 62% 30.20 in 10.0 mi Calm Calm - N/A   Clear
9:55 PM 57.7 °F 45.3 °F 63% 30.21 in 10.0 mi Calm Calm - N/A   Clear
10:15 PM 57.2 °F 45.1 °F 64% 30.21 in 10.0 mi Calm Calm - N/A   Clear
10:35 PM 59.0 °F 42.8 °F 55% 30.21 in 10.0 mi South 3.5 mph - N/A   Clear
10:55 PM 60.3 °F 40.5 °F 48% 30.22 in 10.0 mi South 3.5 mph - N/A   Clear
11:15 PM 58.6 °F 41.9 °F 54% 30.21 in 10.0 mi SSW 6.9 mph - N/A   Clear
11:35 PM 60.3 °F 41.9 °F 51% 30.22 in 10.0 mi SW 8.1 mph - N/A   Clear
11:55 PM 60.3 °F 40.6 °F 48% 30.21 in 10.0 mi SSW 3.5 mph - N/A   Clear